This is the latest recevied weather packets stored in our database for station/object WP4NYS-13. If no packets are shown the sender has not sent any weather packets the latest 10 day(s).
| Time | Temp. | Humidity | Pressure | Rain* | Wind** | Luminosity | Snow |
|---|---|---|---|---|---|---|---|
| 1777901047 | 21.11° C | 55% | 1019.2 hPa | 0 mm | - | - | - |
| 1777900744 | 21.11° C | 56% | 1019.1 hPa | 0 mm | - | - | - |
| 1777900440 | 21.11° C | 58% | 1019.1 hPa | 0 mm | - | - | - |
| 1777900138 | 20.56° C | 60% | 1019 hPa | 0 mm | - | - | - |
| 1777899834 | 20.56° C | 61% | 1019 hPa | 0 mm | - | - | - |
| 1777899531 | 20° C | 63% | 1018.9 hPa | 0 mm | - | - | - |
| 1777899229 | 20° C | 63% | 1019.1 hPa | 0 mm | - | - | - |
| 1777898927 | 19.44° C | 66% | 1019.1 hPa | 0 mm | - | - | - |
| 1777898624 | 19.44° C | 69% | 1019.1 hPa | 0 mm | - | - | - |
| 1777898321 | 18.89° C | 71% | 1018.9 hPa | 0 mm | - | - | - |
| 1777898018 | 18.89° C | 75% | 1018.9 hPa | 0 mm | - | - | - |
| 1777897714 | 18.33° C | 76% | 1019.1 hPa | 0 mm | - | - | - |
| 1777897411 | 17.78° C | 79% | 1018.9 hPa | 0 mm | - | - | - |
| 1777897107 | 17.22° C | 81% | 1018.9 hPa | 0 mm | - | - | - |
| 1777896803 | 16.67° C | 82% | 1019.1 hPa | 0 mm | - | - | - |
| 1777896500 | 16.67° C | 83% | 1019 hPa | 0 mm | - | - | - |
| 1777896197 | 16.67° C | 84% | 1019 hPa | 0 mm | - | - | - |
| 1777895896 | 16.11° C | 85% | 1018.8 hPa | 0 mm | - | - | - |
| 1777895593 | 15.56° C | 85% | 1019 hPa | 0 mm | - | - | - |
| 1777895290 | 15.56° C | 85% | 1019.1 hPa | 0 mm | - | - | - |
| 1777894988 | 15.56° C | 86% | 1019 hPa | 0 mm | - | - | - |
| 1777894685 | 15° C | 89% | 1018.9 hPa | 0 mm | - | - | - |
| 1777894381 | 14.44° C | 90% | 1018.8 hPa | 0 mm | - | - | - |
| 1777894079 | 13.89° C | 91% | 1018.6 hPa | 0 mm | - | - | - |
| 1777893775 | 13.89° C | 91% | 1018.8 hPa | 0 mm | - | - | - |
* Rain latest hour (hover to see other rain measurements)
** Current wind speed in m/s (hover to see current wind gust speed)